DLH767 VABB-EDDM

Flight info

Callsign DLH767
Flight time N/A
Altitude 38000
Route ANOLI2A ISRIS G208 APANO G451 AAE Z8 VIKIT P628 RK G202 ZB L750 KADVI/N0490F400 L750 RANAH B449 DUKAN L850 ADEKI N644 TETRO M10 SARPI UM10 GOKPA UL746 ODERO DCT LUGEB DCT MOPUG DCT NALOX DCT GOTAR DCT AMADI Q113 NAPSA NAPSA4A
Aircraft A359/H-SDE2E3GHIJ3J4J5LM1ORWXY/LB1D1

Departure

Time 2026-04-27 00:08
Airport Chhatrapati Shivaji Maharaj International Airport (VABB)

Arrival

Time N/A
Airport Munich Airport (EDDM)
Time Latitude Longitude Altitude Speed Heading
2026-04-26 23:29 19.09312 72.87211 56 ft 0 kts 337°
2026-04-26 23:54 19.09297 72.87217 47 ft 4 kts 333°
2026-04-26 23:54 19.09282 72.87227 50 ft 4 kts 326°
2026-04-26 23:55 19.09260 72.87244 47 ft 4 kts 315°
2026-04-26 23:55 19.09244 72.87266 48 ft 4 kts 294°
2026-04-26 23:55 19.09238 72.87285 47 ft 0 kts 268°
2026-04-26 23:59 19.09238 72.87275 47 ft 5 kts 268°
2026-04-27 00:00 19.09236 72.87210 49 ft 12 kts 268°
2026-04-27 00:00 19.09234 72.87167 53 ft 0 kts 268°
2026-04-27 00:00 19.09234 72.87151 55 ft 5 kts 269°
2026-04-27 00:00 19.09220 72.87101 48 ft 9 kts 227°
2026-04-27 00:01 19.09158 72.87073 49 ft 9 kts 213°
2026-04-27 00:01 19.09136 72.87008 54 ft 11 kts 265°
2026-04-27 00:01 19.09134 72.86917 56 ft 13 kts 269°
2026-04-27 00:01 19.09103 72.86823 51 ft 14 kts 231°
2026-04-27 00:02 19.09048 72.86739 51 ft 14 kts 255°
2026-04-27 00:02 19.09041 72.86632 50 ft 15 kts 269°
2026-04-27 00:02 19.09039 72.86513 49 ft 17 kts 269°
2026-04-27 00:02 19.09038 72.86380 50 ft 18 kts 269°
2026-04-27 00:03 19.09036 72.86242 55 ft 19 kts 269°
2026-04-27 00:03 19.09034 72.86095 54 ft 20 kts 269°
2026-04-27 00:03 19.09032 72.85943 55 ft 21 kts 269°
2026-04-27 00:03 19.09030 72.85784 55 ft 22 kts 269°
2026-04-27 00:04 19.09027 72.85623 48 ft 22 kts 269°
2026-04-27 00:04 19.09025 72.85456 50 ft 23 kts 269°
2026-04-27 00:04 19.09023 72.85285 51 ft 24 kts 269°
2026-04-27 00:04 19.09013 72.85109 50 ft 24 kts 260°
2026-04-27 00:05 19.08982 72.84985 49 ft 11 kts 251°
2026-04-27 00:05 19.08969 72.84959 50 ft 0 kts 233°
2026-04-27 00:06 19.08961 72.84951 52 ft 4 kts 221°
2026-04-27 00:06 19.08922 72.84937 49 ft 8 kts 189°
2026-04-27 00:06 19.08859 72.84958 51 ft 10 kts 131°
2026-04-27 00:07 19.08847 72.85028 54 ft 5 kts 89°
2026-04-27 00:07 19.08847 72.85032 54 ft 0 kts 89°
2026-04-27 00:07 19.08847 72.85044 54 ft 16 kts 89°
2026-04-27 00:07 19.08851 72.85411 52 ft 82 kts 89°
2026-04-27 00:08 19.08864 72.86210 53 ft 136 kts 89°
2026-04-27 00:08 19.08888 72.87356 260 ft 161 kts 88°
2026-04-27 00:08 19.08953 72.88526 794 ft 162 kts 88°
2026-04-27 00:08 19.09015 72.89745 1270 ft 169 kts 88°
2026-04-27 00:09 19.09056 72.91014 1652 ft 177 kts 89°
2026-04-27 00:09 19.09073 72.92327 2035 ft 184 kts 88°
2026-04-27 00:09 19.09388 72.93694 2208 ft 201 kts 55°
2026-04-27 00:09 19.10469 72.94676 2403 ft 215 kts 22°
2026-04-27 00:10 19.11939 72.95145 2690 ft 231 kts
2026-04-27 00:10 19.13575 72.95512 2989 ft 248 kts 10°
2026-04-27 00:10 19.15274 72.95953 3582 ft 253 kts 12°
2026-04-27 00:10 19.16981 72.96444 4240 ft 254 kts 12°
2026-04-27 00:11 19.18685 72.96959 4894 ft 256 kts 13°
2026-04-27 00:11 19.20414 72.97495 5513 ft 259 kts 13°
2026-04-27 00:11 19.22139 72.98038 6093 ft 263 kts 14°
2026-04-27 00:11 19.23912 72.98600 6649 ft 267 kts 14°
2026-04-27 00:12 19.25710 72.99174 7212 ft 271 kts 15°
2026-04-27 00:12 19.27506 72.99748 7627 ft 274 kts 15°
2026-04-27 00:12 19.29341 73.00336 7790 ft 275 kts 15°
2026-04-27 00:12 19.31176 73.00924 7807 ft 276 kts 15°
2026-04-27 00:13 19.33026 73.01517 7804 ft 277 kts 15°
2026-04-27 00:13 19.34912 73.01897 7801 ft 275 kts 359°
2026-04-27 00:13 19.36767 73.01511 7807 ft 272 kts 335°
2026-04-27 00:13 19.38272 73.00303 7976 ft 275 kts 312°
2026-04-27 00:14 19.39472 72.98688 8438 ft 280 kts 308°
2026-04-27 00:14 19.40617 72.97037 8742 ft 281 kts 307°
2026-04-27 00:14 19.41776 72.95368 8809 ft 281 kts 307°
2026-04-27 00:14 19.42945 72.93693 8800 ft 283 kts 307°
2026-04-27 00:15 19.44122 72.92013 8802 ft 284 kts 307°
2026-04-27 00:15 19.45335 72.90390 8793 ft 284 kts 314°
2026-04-27 00:15 19.46941 72.89205 8799 ft 283 kts 339°
2026-04-27 00:15 19.48865 72.88804 8801 ft 282 kts 355°
2026-04-27 00:16 19.50841 72.88703 8798 ft 283 kts 357°
2026-04-27 00:16 19.52796 72.88630 8799 ft 284 kts 357°
2026-04-27 00:16 19.54775 72.88550 8799 ft 284 kts 357°
2026-04-27 00:16 19.56764 72.88463 8798 ft 284 kts 356°
2026-04-27 00:17 19.58714 72.88374 8799 ft 284 kts 356°
2026-04-27 00:17 19.60696 72.88282 8799 ft 284 kts 356°
2026-04-27 00:17 19.62671 72.88188 8799 ft 284 kts 356°
2026-04-27 00:17 19.64651 72.88094 8800 ft 285 kts 356°
2026-04-27 00:18 19.66638 72.87999 8804 ft 285 kts 356°
2026-04-27 00:18 19.68596 72.87913 8969 ft 286 kts 356°
2026-04-27 00:18 19.70611 72.87814 9479 ft 290 kts 356°
2026-04-27 00:18 19.72641 72.87714 10068 ft 296 kts 356°
2026-04-27 00:19 19.74766 72.87610 10352 ft 313 kts 356°
2026-04-27 00:19 19.76973 72.87502 10615 ft 329 kts 356°
2026-04-27 00:19 19.79316 72.87388 10877 ft 344 kts 357°
2026-04-27 00:19 19.81771 72.87270 11116 ft 359 kts 357°
2026-04-27 00:20 19.84301 72.87148 11458 ft 369 kts 357°
2026-04-27 00:20 19.86900 72.87024 11919 ft 375 kts 357°
2026-04-27 00:20 19.89528 72.86897 12420 ft 380 kts 357°
2026-04-27 00:20 19.92155 72.86771 12914 ft 385 kts 357°
2026-04-27 00:21 19.94847 72.86642 13410 ft 390 kts 357°
2026-04-27 00:21 19.97589 72.86510 13873 ft 395 kts 357°
2026-04-27 00:21 20.00358 72.86377 14378 ft 397 kts 357°
2026-04-27 00:21 20.03083 72.86245 14940 ft 397 kts 357°
2026-04-27 00:22 20.05867 72.86111 15469 ft 399 kts 357°
2026-04-27 00:22 20.08654 72.86087 15957 ft 402 kts
2026-04-27 00:22 20.11456 72.86367 16431 ft 405 kts
2026-04-27 00:22 20.14231 72.86722 16929 ft 407 kts
2026-04-27 00:23 20.17055 72.87090 17454 ft 408 kts
2026-04-27 00:23 20.19893 72.87458 17937 ft 411 kts
2026-04-27 00:23 20.22746 72.87825 18350 ft 414 kts
2026-04-27 00:23 20.25589 72.88190 18777 ft 416 kts
2026-04-27 00:24 20.28472 72.88560 19179 ft 419 kts
2026-04-27 00:24 20.31372 72.88931 19635 ft 420 kts
2026-04-27 00:24 20.34290 72.89305 20035 ft 423 kts
2026-04-27 00:24 20.37222 72.89680 20468 ft 426 kts
2026-04-27 00:25 20.40179 72.90060 20861 ft 429 kts
2026-04-27 00:25 20.43134 72.90438 21257 ft 433 kts
2026-04-27 00:25 20.46140 72.90824 21692 ft 435 kts
2026-04-27 00:25 20.49173 72.91213 22110 ft 438 kts
2026-04-27 00:26 20.52213 72.91603 22516 ft 441 kts
2026-04-27 00:26 20.55275 72.91996 22917 ft 444 kts
2026-04-27 00:26 20.58359 72.92392 23317 ft 447 kts
2026-04-27 00:26 20.61428 72.92786 23665 ft 451 kts
2026-04-27 00:27 20.64554 72.93188 24008 ft 454 kts
2026-04-27 00:27 20.67713 72.93594 24380 ft 456 kts
2026-04-27 00:27 20.70834 72.93996 24751 ft 459 kts
2026-04-27 00:27 20.74061 72.94412 25134 ft 462 kts
2026-04-27 00:28 20.77231 72.94813 25494 ft 465 kts
2026-04-27 00:28 20.80475 72.95061 25873 ft 467 kts
2026-04-27 00:28 20.83732 72.95162 26247 ft 469 kts 358°